Regional Weather Roundup
Issued by NWS

Home | Current Version | Previous Version | Graphics & Text | Print | Product List | Glossary On
Versions: 1 2 3 4 5 6 7 8 9 10 11 12 13 14 15 16 17 18 19 20 21 22 23 24 25 26 27 28 29 30 31 32 33 34 35 36 37 38 39 40 41 42 43 44 45 46 47 48 49 50
000
ASUS43 KLMK 011810
RWRKY
KENTUCKY REGIONAL WEATHER ROUNDUP
NATIONAL WEATHER SERVICE LOUISVILLE KY
200 PM EDT MON SEP 01 2014

NOTE "FAIR" INDICATES FEW OR NO CLOUDS BELOW 12,000 FEET
WITH NO SIGNIFICANT WEATHER AND/OR OBSTRUCTIONS TO VISIBILITY.

KYZ001>023-026-027-061>063-070>075-011900-
WESTERN AND SOUTH CENTRAL KENTUCKY

CITY           SKY/WX    TMP DP  RH WIND       PRES   REMARKS
PADUCAH        CLOUDY    87  73  62 SW15G28   29.96F HX  94
HENDERSON      CLOUDY    84  70  61 SW17G29   29.92F
OWENSBORO      PTSUNNY   84  73  70 SW14G25   29.95R HX  91
HOPKINSVILLE   MOSUNNY   87  73  63 SW16G28   30.02F HAZE    HX  94
BOWLING GREEN  PTSUNNY   86  72  62 SW16      30.02F HX  92
GLASGOW        PTSUNNY   86  71  59 SW15G25   30.03S HX  91
$$

KYZ024-025-028>034-038-045-046-053-011900-
NORTH CENTRAL KENTUCKY

CITY           SKY/WX    TMP DP  RH WIND       PRES   REMARKS
LOUISVILLE/SDF PTSUNNY   87  72  60 SW18G25   29.96F HX  93
LOUISVILLE/LOU PTSUNNY   84  72  67 SW14G22   29.96F
FORT KNOX      PTSUNNY   84  75  74 SW13G24   29.98R HX  92
$$

KYZ035>037-039>044-047>052-055>060-089>105-011900-
NORTHEAST KENTUCKY

CITY           SKY/WX    TMP DP  RH WIND       PRES   REMARKS
LEXINGTON      MOSUNNY   77  72  84 SW14      30.03F
COVINGTON      PTSUNNY   76  71  85 S6        29.95F
FRANKFORT      PTSUNNY   83  71  67 SW21G26   30.00F
$$

KYZ054-064>069-076>088-106>120-011900-
SOUTHEAST KENTUCKY

CITY           SKY/WX    TMP DP  RH WIND       PRES   REMARKS
JACKSON        PTSUNNY   84  70  62 CALM      30.08F
LONDON         SUNNY     86  69  56 SW10G20   30.09F HX  90
SOMERSET       MOSUNNY   86  68  54 W16       30.08S
MIDDLESBORO    PTSUNNY   85  71  63 S7        30.11F HX  90
MONTICELLO     CLEAR     88  72  58 SW10      30.09F HX  94
$$



USA.gov is the U.S. government's official web portal to all federal, state and local government web resources and services.